Weather History for Alpena, MI

Change the Weather History Date:

Wednesday, January 16, 2013

  Actual Average Record
Temperature  
Mean Temperature 23 °F 19 °F  
Max Temperature 32 °F 27 °F 51 °F (1973)
Min Temperature 13 °F 11 °F -28 °F (1994)
Degree Days  
Heating Degree Days 42 46  
Month to date heating degree days 576 725  
Since 1 July heating degree days 3352 3786  
Moisture  
Dew Point 18 °F    
Average Humidity 71    
Maximum Humidity 88    
Minimum Humidity 53    
Precipitation  
Precipitation T in 0.06 in 0.33 in (1924)
Month to date precipitation 0.87 0.92  
Year to date precipitation 0.87 0.92  
Snow  
Snow T in 0.70 in 3.90 in (1924)
Month to date snowfall 0.6 11.2  
Since 1 July snowfall 14.3 38.5  
Snow Depth T in    
Sea Level Pressure  
Sea Level Pressure 29.82 in    
Wind  
Wind Speed 10 mph (SW)    
Max Wind Speed 21 mph    
Max Gust Speed 32 mph    
Visibility 9 miles    
Events Snow    
T = Trace of Precipitation, MM = Missing Value Source: NWS Daily Summary

Daily Weather History Graph

Daily Weather History Graph

Search for Another Location

Airport:

Trip Planner

Search our weather history database for the weather conditions in past years. The results will help you decide how hot, cold, wet, or windy it might be!

Date:

Astronomy

Jan. 16, 2013 Rise Set
Actual Time 8:08 AM EST 5:20 PM EST
Civil Twilight 7:35 AM EST 5:53 PM EST
Nautical Twilight 6:59 AM EST 6:29 PM EST
Astronomical Twilight 6:24 AM EST 7:04 PM EST
Moon 10:27 AM EST (1/16) 11:29 PM EST (1/16)
Length of Visible Light 10h 17m
Length of Day
9h 11m
Waxing Crescent, 28% of the Moon is Illuminated
Jan 16
Waxing Crescent
Jan 18
First Quarter
Jan 26
Full
Feb 3
Last Quarter
Feb 10
New

Hourly Weather History & Observations

Time (EST) Temp. Windchill Dew Point Humidity Pressure Visibility Wind Dir Wind Speed Gust Speed Precip Events Conditions
12:54 AM 14.0 °F 6.5 °F 10.9 °F 88% 30.09 in 10.0 mi South 4.6 mph - N/A   Clear
1:54 AM 16.0 °F 10.4 °F 10.9 °F 81% 30.06 in 10.0 mi South 3.5 mph - N/A   Clear
2:54 AM 17.1 °F 10.0 °F 12.9 °F 84% 30.04 in 9.0 mi South 4.6 mph - N/A   Mostly Cloudy
3:54 AM 19.0 °F 12.3 °F 15.1 °F 85% 29.99 in 10.0 mi SSW 4.6 mph - N/A   Clear
4:54 AM 18.0 °F 8.7 °F 14.0 °F 84% 29.96 in 9.0 mi SSW 6.9 mph - N/A   Clear
5:54 AM 19.0 °F 10.0 °F 15.1 °F 85% 29.93 in 9.0 mi SSW 6.9 mph - N/A   Clear
6:54 AM 19.0 °F 10.0 °F 15.1 °F 85% 29.89 in 9.0 mi South 6.9 mph - N/A   Clear
7:54 AM 18.0 °F 8.7 °F 14.0 °F 84% 29.87 in 8.0 mi South 6.9 mph - N/A   Clear
8:00 AM 17.6 °F 9.3 °F 14.0 °F 86% 29.83 in 8.0 mi South 5.8 mph - N/A   Mostly Cloudy
8:54 AM 21.0 °F 11.4 °F 17.1 °F 85% 29.84 in 6.0 mi South 8.1 mph - N/A   Mostly Cloudy
9:54 AM 24.1 °F 11.0 °F 18.0 °F 77% 29.80 in 10.0 mi SSW 16.1 mph 24.2 mph N/A   Mostly Cloudy
10:54 AM 26.1 °F 16.2 °F 18.0 °F 71% 29.75 in 10.0 mi SSW 10.4 mph - N/A   Overcast
11:54 AM 28.9 °F 18.2 °F 15.1 °F 56% 29.70 in 10.0 mi SW 13.8 mph 25.3 mph N/A   Overcast
12:54 PM 30.9 °F 19.8 °F 15.1 °F 52% 29.66 in 10.0 mi SW 16.1 mph 28.8 mph N/A   Overcast
1:54 PM 30.9 °F 19.1 °F 18.0 °F 59% 29.65 in 10.0 mi WSW 18.4 mph 29.9 mph N/A   Overcast
2:33 PM 30.2 °F 20.8 °F 21.2 °F 69% 29.61 in 10.0 mi SW 11.5 mph 23.0 mph N/A   Overcast
2:54 PM 30.9 °F 21.2 °F 21.0 °F 67% 29.65 in 10.0 mi SW 12.7 mph 21.9 mph N/A   Overcast
3:54 PM 30.9 °F 20.2 °F 21.9 °F 69% 29.67 in 10.0 mi WSW 15.0 mph 23.0 mph N/A   Overcast
4:54 PM 30.9 °F 21.2 °F 23.0 °F 72% 29.69 in 10.0 mi West 12.7 mph 17.3 mph N/A   Overcast
5:54 PM 30.9 °F 20.7 °F 23.0 °F 72% 29.73 in 10.0 mi West 13.8 mph 21.9 mph 0.00 in   Overcast
6:54 PM 30.9 °F 22.2 °F 23.0 °F 72% 29.76 in 10.0 mi West 10.4 mph 19.6 mph N/A   Overcast
7:54 PM 30.9 °F 22.8 °F 23.0 °F 72% 29.77 in 10.0 mi West 9.2 mph 17.3 mph N/A   Overcast
8:21 PM 30.2 °F 24.3 °F 23.0 °F 75% 29.74 in 10.0 mi West 5.8 mph - N/A   Overcast
8:54 PM 30.0 °F 21.7 °F 23.0 °F 75% 29.79 in 7.0 mi West 9.2 mph - 0.00 in Snow Light Snow
9:12 PM 30.2 °F 22.6 °F 24.8 °F 80% 29.77 in 2.0 mi WNW 8.1 mph - 0.00 in Snow Light Snow
9:25 PM 28.4 °F 19.7 °F 24.8 °F 86% 29.78 in 6.0 mi WNW 9.2 mph 19.6 mph 0.00 in Snow Light Snow
9:54 PM 28.0 °F 18.6 °F 19.9 °F 72% 29.84 in 9.0 mi NW 10.4 mph 25.3 mph 0.00 in   Overcast
10:54 PM 26.1 °F 14.5 °F 17.1 °F 69% 29.89 in 10.0 mi NW 13.8 mph 20.7 mph 0.00 in   Overcast
11:20 PM 24.8 °F 11.5 °F 14.0 °F 64% 29.88 in 10.0 mi NW 17.3 mph 27.6 mph N/A   Overcast
11:54 PM 23.0 °F 10.1 °F 12.0 °F 63% 29.95 in 10.0 mi NW 15.0 mph 21.9 mph N/A   Overcast